Snowfall_Accumulation
nan nan nan nan nan nan nan nan nan nan nan nan nan nan nan nan nan 0.0 0.0 0.0 0.1 3.3 0.3 0.0 0.0 0.2 0.3 0.1 2.4 0.0 0.9 0.1 0.2 1.8 3.6 1.3 1.8 2.3 1.8 1.2 4.9 3.4 4.2 4.7 5.1 11.0 10.2 1.3 0.4 6.2 8.0 2.5 4.0 3.3
nan nan nan nan nan nan nan nan nan nan nan nan nan nan nan nan nan nan 0.0 0.0 0.0 0.3 0.4 0.0 0.0 0.0 0.0 0.0 0.5 0.1 0.4 0.4 0.8 1.8 3.0 3.6 3.7 2.5 3.1 2.9 1.2 6.9 4.6 9.9 6.4 9.1 5.3 2.8 5.2 3.4 3.3 1.7 1.4 1.7
nan nan nan nan nan nan nan nan nan nan nan nan nan nan nan nan nan nan 0.0 0.0 0.0 0.7 0.5 0.1 0.0 0.0 0.0 0.0 0.0 1.7 0.0 0.1 0.2 0.4 3.6 3.6 5.9 1.8 3.1 0.9 0.8 1.1 1.0 1.5 1.4 1.5 0.3 1.8 0.6 0.6 1.5 1.4 0.9 0.4
nan nan nan nan nan nan nan nan nan nan nan nan nan nan nan nan nan nan 0.0 0.0 0.0 0.8 7.6 0.3 0.0 0.0 0.0 0.0 0.0 0.0 0.0 0.0 0.1 1.0 4.4 5.6 5.5 0.6 1.7 1.4 1.2 0.4 0.1 0.3 0.1 0.2 0.1 0.4 0.1 0.6 0.4 0.4 0.6 0.3
nan nan nan nan nan nan nan nan nan nan nan nan nan nan nan nan nan nan 0.0 0.0 0.0 1.4 7.1 0.7 0.0 0.0 0.0 0.0 0.0 0.0 0.0 0.1 0.3 4.1 5.8 6.6 1.5 2.3 1.5 1.6 1.4 1.4 2.6 1.3 0.6 0.2 0.9 0.1 0.1 0.2 0.3 0.3 0.3 0.7
nan nan nan nan nan nan nan nan nan nan nan nan nan nan nan nan nan 0.0 0.3 0.0 0.0 0.0 3.5 7.0 1.0 0.1 0.0 0.0 0.0 0.0 0.0 0.1 0.8 2.4 4.3 2.4 1.7 3.6 8.0 2.7 0.6 0.4 0.2 0.8 2.8 0.2 0.4 0.3 0.2 0.5 0.8 0.6 0.7 1.6
nan nan nan nan nan nan nan nan nan nan nan nan nan nan nan nan 0.0 0.0 0.4 0.0 nan 0.0 5.5 22.1 9.9 0.9 0.1 0.1 0.3 0.6 0.2 0.8 1.7 3.1 5.9 3.1 3.8 4.3 7.4 6.2 0.8 0.4 0.2 0.4 0.4 0.8 1.5 0.7 1.6 0.8 1.0 1.1 1.0 1.4
nan nan nan nan nan nan nan nan nan nan nan nan nan nan nan nan nan 0.0 0.0 nan nan 0.1 2.1 29.3 16.6 2.7 0.2 0.9 3.4 1.4 1.8 2.3 4.9 5.5 5.7 3.4 2.9 5.2 11.9 2.2 0.7 0.6 0.8 1.5 2.5 2.6 2.2 2.3 2.6 2.8 2.3 1.9 1.8 1.6
nan nan nan nan nan nan nan nan nan nan nan nan nan nan 0.0 0.0 0.0 0.0 nan nan 0.0 0.8 20.2 17.1 12.3 9.1 1.3 1.1 1.8 3.3 4.0 15.5 7.5 10.4 5.5 3.6 12.8 21.0 11.1 3.8 1.6 2.6 6.3 5.9 3.9 3.5 3.6 2.9 2.9 2.7 2.6 3.8 4.3 5.1
nan nan nan nan nan nan nan nan nan nan nan nan 0.0 0.0 3.0 0.1 nan nan 0.1 2.7 4.6 11.0 15.7 13.8 5.2 7.7 2.1 2.3 5.7 6.6 8.8 18.2 26.4 16.2 7.9 16.3 16.9 6.8 6.8 7.3 6.0 5.8 5.5 5.8 6.2 6.3 3.7 4.2 4.9 6.4 7.4 7.7 5.8 6.8
nan nan nan nan nan nan nan nan nan nan nan 0.2 2.9 5.1 0.2 nan 0.3 3.0 15.5 17.2 15.6 16.5 6.5 5.5 3.8 4.9 2.6 11.7 11.1 9.3 20.3 20.8 26.8 12.2 12.6 17.2 14.4 7.8 6.5 8.1 7.9 7.2 7.1 7.5 6.8 7.9 8.4 9.6 9.9 8.4 8.0 7.4 7.3 6.8
nan nan nan nan nan nan nan nan nan 0.0 0.4 0.5 1.0 0.4 0.7 6.9 14.3 20.6 22.7 13.2 11.1 11.4 8.2 6.6 4.3 4.2 7.8 4.9 14.7 19.6 17.9 15.4 22.3 6.0 15.4 14.9 8.2 6.6 8.5 10.0 9.6 9.4 8.5 8.1 7.8 8.4 8.3 7.9 8.4 8.6 8.1 8.2 7.2 6.3
nan nan nan nan nan nan nan nan nan nan nan 0.2 6.0 13.8 14.4 22.7 47.6 24.8 21.5 14.8 15.3 6.3 9.0 5.9 9.4 5.6 10.6 8.7 17.2 14.2 22.0 19.5 5.8 16.5 12.9 11.2 9.1 8.6 10.1 10.1 10.6 10.5 9.2 8.1 8.8 8.0 7.8 8.2 7.8 6.7 8.2 7.1 6.3 6.2
nan nan nan nan nan nan nan nan nan 0.0 0.3 10.7 22.5 47.6 19.3 20.1 8.9 8.9 7.5 7.8 6.0 7.6 9.0 9.5 11.0 10.2 10.6 15.7 12.2 21.9 13.5 6.9 22.6 18.3 14.2 11.6 10.7 9.7 9.3 9.1 8.1 10.3 9.9 9.0 11.0 9.5 9.1 7.3 8.3 7.4 6.6 7.1 6.1 5.5
nan nan nan nan nan nan nan nan nan 0.0 2.3 22.5 15.1 32.1 17.2 6.9 7.4 8.7 8.4 7.6 7.9 7.8 12.2 13.5 11.6 10.5 16.1 19.9 9.6 10.8 17.1 23.5 14.3 15.1 12.6 12.0 11.3 10.8 10.0 8.9 9.0 8.1 8.5 7.9 8.0 9.4 9.9 8.0 6.2 5.9 6.5 6.6 5.3 4.9
nan nan 0.0 nan nan nan nan nan 0.3 1.7 13.8 18.9 17.2 16.2 3.6 7.4 10.3 6.3 8.0 8.3 6.1 7.7 8.5 11.5 14.8 18.0 16.1 14.2 15.8 17.8 17.6 16.0 15.8 14.6 12.8 11.1 10.3 9.9 10.5 9.8 9.8 9.7 9.9 10.2 8.4 8.8 7.5 7.6 9.1 10.4 6.5 6.3 5.7 5.1
nan 0.4 nan nan nan nan nan 1.0 9.7 23.4 27.0 26.4 24.3 5.1 7.3 6.6 6.4 4.4 3.4 3.2 3.0 6.9 11.5 11.4 17.9 15.4 13.1 16.3 16.3 12.2 18.7 15.4 13.5 10.7 9.1 9.7 9.6 9.3 8.7 7.3 7.3 5.8 5.8 5.6 6.6 6.5 7.8 8.3 7.8 6.7 6.0 8.5 7.6 7.9
0.2 0.1 nan nan nan nan 16.2 14.8 23.6 29.5 33.1 13.0 12.2 8.4 4.3 2.9 3.2 1.8 2.1 2.3 3.8 4.3 6.0 11.8 6.4 13.7 14.8 13.0 11.3 13.0 10.6 9.0 8.1 8.1 7.9 7.5 7.0 6.4 6.1 5.9 5.1 5.0 4.9 5.1 5.8 5.9 6.6 5.5 5.0 6.9 5.7 6.7 5.3 6.1
0.3 0.1 nan nan 0.1 7.7 23.2 32.8 18.5 28.7 18.8 9.6 7.8 5.7 3.2 1.6 1.2 1.3 1.9 2.1 3.5 3.6 6.2 11.0 14.8 14.4 6.7 8.4 9.4 10.1 9.2 6.7 7.0 6.3 6.6 6.4 6.0 6.4 6.4 6.2 5.7 5.4 6.8 6.6 3.9 6.5 6.3 5.8 7.5 5.9 5.8 4.2 5.0 6.5
nan nan nan nan nan 20.1 37.9 29.6 10.2 13.8 19.5 12.0 6.6 7.7 4.3 3.2 1.9 1.9 2.9 3.6 4.9 9.8 12.8 19.1 10.6 9.5 9.3 9.4 8.3 8.1 7.2 6.0 5.0 4.0 4.9 4.0 4.2 3.7 3.9 4.4 4.9 5.3 5.0 3.4 3.9 nan 3.6 2.3 2.4 3.5 5.3 6.4 3.9 5.5
nan nan nan 4.1 12.6 9.8 13.9 22.1 17.1 13.1 12.5 9.4 12.6 6.5 9.0 6.0 8.3 11.8 11.6 5.0 12.6 17.7 15.6 9.4 10.0 9.9 9.4 8.9 7.4 6.1 6.5 5.7 6.1 5.9 5.7 5.1 4.9 3.3 2.9 3.0 2.2 1.6 1.3 1.8 1.8 1.8 1.5 2.3 2.6 2.1 1.5 1.7 2.7 2.3
5.6 nan 11.9 10.5 23.9 27.2 22.8 11.4 14.2 9.2 12.1 13.1 10.7 8.8 16.1 18.9 16.8 16.9 10.2 19.4 20.1 11.8 8.3 9.4 10.4 8.4 6.7 6.2 7.7 6.5 7.3 4.7 4.3 3.3 nan 2.8 2.9 2.3 2.3 2.4 2.3 3.8 3.4 3.8 1.9 1.5 1.1 0.9 2.7 1.3 0.7 0.8 0.4 0.6
nan 7.5 16.7 18.9 28.0 29.4 32.8 7.6 13.8 13.2 14.3 18.2 15.4 14.6 17.9 19.7 14.7 8.2 17.6 12.4 10.0 8.0 9.1 8.2 7.2 7.4 7.1 6.9 6.1 5.2 4.2 3.8 3.4 2.4 2.1 1.8 1.7 1.7 2.0 1.5 1.8 4.4 4.6 1.8 1.5 1.7 2.4 nan 0.6 1.3 0.4 0.5 0.8 1.0
nan 23.2 33.0 31.3 26.3 29.1 12.0 19.9 8.8 10.6 12.0 12.1 15.5 14.4 15.6 13.4 10.3 18.9 16.5 9.7 7.6 6.7 6.9 6.8 5.2 5.9 5.7 4.9 5.1 4.7 3.6 3.0 2.3 1.8 1.8 1.8 2.1 1.5 1.3 1.4 1.1 1.4 2.6 2.0 1.6 1.9 1.6 0.8 nan 0.7 0.9 2.3 2.6 2.8
33.3 48.4 29.0 43.7 20.2 17.9 12.9 11.0 14.0 10.3 12.9 11.6 13.1 13.7 15.0 11.7 16.3 17.6 12.0 11.3 8.1 6.3 6.8 5.4 4.1 4.4 3.8 4.0 3.6 2.9 2.0 2.5 2.9 2.5 1.8 1.7 1.8 1.7 2.8 1.8 1.0 1.4 1.6 4.3 3.6 3.2 2.9 2.4 2.2 2.7 2.9 3.9 4.9 6.8
49.6 24.1 32.5 13.2 16.8 9.9 7.9 9.9 9.6 10.5 9.1 12.7 13.4 12.2 14.0 13.0 17.1 19.5 8.3 9.4 5.5 6.3 5.9 4.6 3.9 2.8 2.3 2.4 3.2 2.5 2.3 2.0 2.3 2.4 2.4 2.1 2.2 4.9 6.6 4.1 3.8 1.9 1.8 2.8 5.1 6.4 5.0 3.4 4.1 4.3 4.5 4.3 nan 7.8
38.1 24.9 9.4 1.5 3.2 2.6 4.4 4.4 4.2 7.3 11.7 12.7 10.2 9.9 12.5 20.1 14.9 7.3 5.5 6.3 5.4 5.1 3.3 2.9 3.4 3.4 3.2 2.6 1.8 1.7 1.8 2.8 3.5 2.7 1.5 1.9 2.1 2.2 4.8 7.6 6.4 2.1 2.6 5.9 4.8 5.7 6.4 4.8 4.8 5.3 6.3 6.3 6.2 7.7
10.7 8.1 7.9 12.2 5.8 5.2 4.8 4.8 6.8 10.0 9.1 5.6 6.6 12.0 12.5 9.2 8.1 6.4 6.1 7.5 7.2 5.3 6.2 4.2 3.3 3.1 3.7 3.6 3.5 2.5 3.7 3.8 4.3 4.9 4.7 3.5 3.4 3.9 4.7 3.5 3.8 nan 5.6 4.2 6.4 7.7 7.3 6.9 7.8 7.3 7.3 8.6 7.2 5.6
7.7 5.5 6.4 12.3 8.3 8.1 10.2 9.0 6.9 4.2 1.9 5.9 7.2 5.9 5.5 5.1 7.6 7.7 5.9 5.0 6.1 7.1 6.7 5.5 5.5 7.1 6.7 5.6 5.4 6.7 6.2 6.4 7.4 6.5 4.8 5.1 4.9 5.4 5.9 6.0 7.3 7.1 6.3 6.9 nan nan 9.6 13.5 17.4 19.0 12.1 9.3 8.0 8.9
6.5 7.4 6.0 7.0 7.5 9.1 9.5 6.1 9.9 8.7 4.0 3.2 3.0 4.6 4.5 6.7 9.1 7.2 6.2 5.9 7.9 9.9 8.0 8.5 8.4 13.0 10.5 8.6 9.4 7.2 6.3 6.9 7.5 7.2 9.9 7.8 6.4 5.3 9.7 9.4 8.6 8.4 8.4 8.5 8.3 8.3 nan 10.6 nan 10.6 10.6 9.2 9.0 8.9
4.8 8.5 7.3 6.9 7.9 10.9 9.2 4.8 7.9 2.0 6.5 10.5 8.6 8.6 7.8 9.0 7.0 5.5 4.2 3.9 5.5 9.2 10.3 12.6 11.8 12.0 9.9 9.4 11.0 10.3 8.4 7.1 9.9 9.6 9.1 9.2 8.0 9.9 10.0 10.2 9.1 9.8 9.4 9.2 8.9 8.5 9.3 9.4 10.1 11.0 9.2 10.0 8.9 10.0
6.6 9.7 9.2 6.7 11.3 12.9 9.8 12.3 13.0 11.8 12.1 11.7 12.0 12.7 11.1 9.9 7.8 5.8 4.2 9.9 9.6 8.4 nan 8.2 7.1 5.3 5.0 5.2 5.5 6.4 nan 6.7 8.2 9.0 11.3 11.0 11.3 12.2 11.0 10.7 10.9 10.7 10.6 10.2 10.3 10.0 10.9 12.8 11.4 10.9 9.7 10.9 10.7 9.5
15.1 12.6 14.2 9.9 15.7 13.5 12.6 12.9 7.2 16.1 12.4 12.5 9.5 9.8 11.3 6.8 5.6 5.0 5.5 6.8 3.6 4.1 4.7 5.1 4.8 4.9 5.3 6.8 5.8 5.3 nan 7.0 10.6 nan nan nan nan nan 15.5 11.7 10.1 10.6 10.1 9.6 9.9 10.8 11.3 11.6 12.5 10.5 11.0 12.0 11.7 10.7
Water_Equivalent
nan nan nan nan nan nan nan nan nan nan nan nan nan nan nan nan nan 0.00 0.00 0.00 0.03 0.98 0.11 0.00 0.00 0.03 0.05 0.02 0.38 0.00 0.14 0.02 0.05 0.31 0.51 0.19 0.25 0.31 0.25 0.15 0.61 0.43 0.52 0.55 0.58 1.28 1.14 0.14 0.04 0.48 0.68 0.26 0.39 0.33
nan nan nan nan nan nan nan nan nan nan nan nan nan nan nan nan nan nan 0.00 0.00 0.00 0.12 0.11 0.00 0.00 0.00 0.00 0.00 0.07 0.02 0.06 0.06 0.16 0.34 0.53 0.57 0.51 0.38 0.41 0.31 0.19 0.82 0.60 1.04 0.70 0.85 0.58 0.37 0.56 0.43 0.43 0.20 0.16 0.16
nan nan nan nan nan nan nan nan nan nan nan nan nan nan nan nan nan nan 0.00 0.00 0.00 0.25 0.17 0.03 0.00 0.00 0.00 0.00 0.00 0.28 0.01 0.02 0.04 0.07 0.54 0.61 0.82 0.29 0.36 0.11 0.11 0.17 0.18 0.21 0.20 0.12 0.03 0.22 0.09 0.10 0.22 0.20 0.13 0.06
nan nan nan nan nan nan nan nan nan nan nan nan nan nan nan nan nan nan 0.00 0.00 0.00 0.30 1.35 0.09 0.00 0.00 0.00 0.00 0.00 0.00 0.00 0.00 0.03 0.18 0.70 0.97 0.79 0.07 0.21 0.15 0.16 0.03 0.01 0.03 0.01 0.02 0.01 0.04 0.02 0.09 0.06 0.06 0.09 0.04
nan nan nan nan nan nan nan nan nan nan nan nan nan nan nan nan nan nan 0.00 0.00 0.00 0.38 1.32 0.19 0.01 0.01 0.00 0.00 0.00 0.00 0.00 0.01 0.05 0.69 0.99 0.94 0.20 0.29 0.22 0.24 0.15 0.11 0.18 0.13 0.04 0.01 0.08 0.01 0.02 0.03 0.03 0.04 0.04 0.07
nan nan nan nan nan nan nan nan nan nan nan nan nan nan nan nan nan 0.00 0.11 0.00 0.00 0.00 0.79 1.39 0.30 0.02 0.00 0.00 0.00 0.00 0.00 0.02 0.14 0.36 0.67 0.34 0.19 0.40 1.12 0.31 0.04 0.02 0.02 0.06 0.18 0.01 0.04 0.04 0.05 0.08 0.10 0.07 0.09 0.17
nan nan nan nan nan nan nan nan nan nan nan nan nan nan nan nan 0.00 0.00 0.14 0.00 nan 0.00 1.58 4.72 1.87 0.23 0.04 0.02 0.13 0.19 0.06 0.21 0.30 0.52 1.03 0.45 0.41 0.57 1.06 0.60 0.06 0.02 0.01 0.03 0.03 0.09 0.19 0.11 0.16 0.12 0.12 0.14 0.12 0.14
nan nan nan nan nan nan nan nan nan nan nan nan nan nan nan nan nan 0.00 0.00 nan nan 0.05 0.61 5.90 2.82 0.60 0.07 0.22 0.63 0.44 0.47 0.56 1.08 1.04 1.01 0.53 0.41 0.83 1.36 0.20 0.05 0.04 0.09 0.17 0.28 0.31 0.26 0.28 0.35 0.31 0.24 0.20 0.16 0.14
nan nan nan nan nan nan nan nan nan nan nan nan nan nan 0.00 0.00 0.00 0.00 nan nan 0.00 0.22 4.59 3.50 2.25 2.10 0.27 0.22 0.34 0.62 1.00 2.41 1.59 1.71 0.75 0.53 1.44 2.33 0.93 0.28 0.12 0.22 0.55 0.49 0.38 0.37 0.38 0.28 0.27 0.26 0.26 0.37 0.39 0.46
nan nan nan nan nan nan nan nan nan nan nan nan 0.00 0.01 0.92 0.04 nan nan 0.01 0.75 1.49 3.42 3.65 2.30 0.88 1.25 0.39 0.46 0.95 1.10 1.53 2.55 3.99 1.92 1.08 2.06 1.50 0.63 0.58 0.69 0.57 0.54 0.51 0.55 0.63 0.58 0.35 0.39 0.44 0.59 0.66 0.70 0.50 0.57
nan nan nan nan nan nan nan nan nan nan nan 0.09 1.10 1.48 0.07 nan 0.09 0.77 3.51 3.89 3.16 3.22 1.07 0.88 0.58 0.69 0.46 1.79 1.47 1.53 3.05 3.03 3.72 1.46 1.37 1.89 1.33 0.61 0.57 0.74 0.77 0.72 0.70 0.72 0.66 0.73 0.79 0.85 0.87 0.70 0.68 0.64 0.63 0.58
nan nan nan nan nan nan nan nan nan 0.00 0.14 0.20 0.32 0.16 0.24 1.66 3.42 4.17 4.24 2.31 1.77 1.76 1.27 0.94 0.62 0.58 1.15 0.86 2.06 3.03 2.50 2.24 2.63 0.76 1.91 1.53 0.71 0.54 0.71 0.83 0.83 0.84 0.78 0.72 0.72 0.73 0.74 0.69 0.71 0.71 0.66 0.70 0.59 0.53
nan nan nan nan nan nan nan nan nan nan nan 0.07 1.48 3.63 3.13 4.48 8.68 4.14 2.98 2.48 2.51 1.00 1.46 0.90 1.51 0.85 1.59 1.44 2.68 2.06 2.99 2.45 0.75 2.33 1.29 0.94 0.72 0.69 0.79 0.83 0.86 0.90 0.80 0.69 0.72 0.68 0.64 0.66 0.66 0.53 0.64 0.56 0.51 0.51
nan nan nan nan nan nan nan nan nan 0.00 0.10 2.47 4.93 8.85 3.20 3.12 1.33 1.28 0.96 1.12 0.85 1.25 1.32 1.29 1.57 1.48 1.59 2.29 1.68 3.27 1.51 0.83 2.85 2.13 1.29 1.01 0.82 0.74 0.72 0.72 0.63 0.79 0.78 0.70 1.08 0.88 0.75 0.59 0.62 0.58 0.55 0.61 0.52 0.44
nan nan nan nan nan nan nan nan nan 0.01 0.69 4.94 3.54 5.33 2.63 0.92 1.14 1.28 1.55 1.31 1.26 1.23 1.77 2.03 1.77 1.43 2.54 3.01 1.25 1.50 2.14 2.86 1.43 1.42 1.18 1.14 0.99 0.90 0.83 0.73 0.71 0.64 0.69 0.69 0.69 0.90 1.01 0.75 0.51 0.47 0.55 0.56 0.44 0.40
nan nan 0.00 nan nan nan nan nan 0.12 0.57 2.87 4.17 3.49 2.54 0.44 1.26 1.68 1.18 1.55 1.40 0.92 1.02 1.23 1.81 2.47 2.81 2.32 2.03 2.19 2.09 2.26 1.62 1.55 1.59 1.26 1.06 0.94 0.89 0.93 0.86 0.86 0.85 0.89 0.93 0.76 0.86 0.73 0.77 0.88 0.95 0.61 0.60 0.49 0.42
nan 0.16 nan nan nan nan nan 0.30 2.33 5.51 5.68 5.46 4.19 0.63 0.98 1.06 0.99 0.56 0.41 0.39 0.47 1.00 1.83 1.82 2.46 2.01 1.90 2.14 1.82 1.48 2.16 1.56 1.40 1.09 0.86 0.85 0.80 0.79 0.79 0.66 0.66 0.57 0.56 0.57 0.68 0.70 0.85 0.97 0.95 0.78 0.64 0.90 0.81 0.84
0.09 0.03 nan nan nan nan 2.76 2.68 4.91 6.29 5.77 2.18 1.58 1.09 0.46 0.31 0.35 0.20 0.25 0.30 0.54 0.66 0.99 2.21 1.10 1.97 1.76 1.45 1.16 1.39 1.17 1.12 0.84 0.72 0.70 0.67 0.62 0.58 0.56 0.54 0.50 0.49 0.49 0.57 0.63 0.69 0.79 0.65 0.58 0.77 0.63 0.76 0.60 0.72
0.09 0.03 nan nan 0.03 1.45 4.88 6.74 4.11 4.83 2.86 1.44 1.02 0.72 0.40 0.18 0.14 0.15 0.22 0.26 0.47 0.51 1.11 1.84 2.21 1.95 0.68 0.96 1.11 1.31 1.11 0.66 0.55 0.55 0.57 0.55 0.54 0.57 0.60 0.61 0.58 0.55 0.76 0.69 0.39 0.67 0.63 0.59 0.78 0.65 0.65 0.46 0.53 0.69
nan nan nan nan nan 3.99 7.46 5.78 2.60 2.49 2.78 1.53 1.03 1.11 0.61 0.45 0.25 0.26 0.38 0.49 0.71 1.88 2.16 2.88 1.07 0.77 0.77 0.89 0.78 0.75 0.69 0.54 0.41 0.35 0.43 0.34 0.36 0.32 0.35 0.42 0.47 0.50 0.51 0.36 0.43 nan 0.36 0.26 0.26 0.37 0.55 0.65 0.41 0.55
nan nan nan 0.66 2.43 1.93 2.94 3.88 2.70 2.23 1.80 1.22 1.67 0.92 1.14 1.08 1.37 2.08 2.09 0.83 2.22 2.86 2.28 0.89 0.85 0.87 0.80 0.73 0.59 0.51 0.56 0.48 0.48 0.44 0.43 0.45 0.39 0.32 0.28 0.31 0.26 0.13 0.10 0.15 0.15 0.16 0.15 0.20 0.25 0.20 0.16 0.19 0.27 0.26
1.24 nan 2.44 2.16 5.20 6.02 4.43 2.17 2.24 1.30 1.63 1.72 1.58 1.28 2.54 3.01 2.58 2.44 1.66 3.21 2.86 1.35 0.81 0.84 0.94 0.74 0.57 0.48 0.60 0.52 0.62 0.41 0.37 0.28 nan 0.22 0.24 0.22 0.21 0.25 0.29 0.56 0.52 0.60 0.18 0.12 0.07 0.06 0.19 0.12 0.09 0.10 0.08 0.08
nan 1.42 3.60 4.44 5.12 5.36 5.27 1.34 1.90 1.77 1.82 2.52 2.26 1.97 2.49 2.85 1.99 1.23 2.38 1.63 1.22 0.75 0.84 0.77 0.61 0.64 0.61 0.59 0.56 0.46 0.36 0.32 0.28 0.19 0.15 0.13 0.12 0.18 0.25 0.15 0.21 0.70 0.73 0.25 0.18 0.21 0.33 nan 0.04 0.09 0.03 0.04 0.13 0.18
nan 4.95 5.91 5.26 4.38 4.42 1.82 2.80 1.18 1.30 1.48 1.49 2.04 1.73 1.95 1.70 1.28 2.50 1.95 1.06 0.66 0.61 0.69 0.60 0.53 0.57 0.57 0.47 0.49 0.44 0.34 0.29 0.22 0.17 0.13 0.19 0.25 0.10 0.08 0.10 0.07 0.12 0.26 0.19 0.20 0.24 0.20 0.04 nan 0.08 0.08 0.31 0.36 0.39
6.61 9.18 5.00 7.41 2.98 2.38 1.53 1.20 1.69 1.12 1.40 1.28 1.47 1.56 1.80 1.27 1.98 2.24 1.28 1.21 0.88 0.62 0.69 0.57 0.42 0.43 0.34 0.34 0.31 0.26 0.15 0.24 0.26 0.25 0.20 0.18 0.18 0.21 0.41 0.22 0.07 0.11 0.18 0.73 0.54 0.40 0.41 0.32 0.28 0.36 0.37 0.48 0.57 0.72
8.98 3.77 5.18 1.73 2.18 1.12 0.83 1.02 0.99 1.10 0.94 1.33 1.39 1.27 1.58 1.51 2.07 2.42 0.80 1.05 0.51 0.62 0.57 0.44 0.33 0.25 0.19 0.20 0.25 0.23 0.20 0.20 0.24 0.30 0.28 0.26 0.25 0.71 1.03 0.51 0.47 0.24 0.21 0.32 0.64 0.77 0.66 0.42 0.44 0.44 0.50 0.48 nan 0.88
6.12 3.69 1.19 0.19 0.33 0.26 0.43 0.41 0.40 0.77 1.27 1.33 1.06 0.99 1.37 2.36 1.61 0.64 0.46 0.58 0.53 0.60 0.40 0.34 0.36 0.34 0.29 0.24 0.18 0.19 0.20 0.37 0.44 0.35 0.19 0.27 0.29 0.25 0.64 1.00 0.76 0.26 0.28 0.62 0.60 0.61 0.64 0.50 0.53 0.60 0.73 0.79 0.73 0.85
1.40 0.91 0.78 1.47 0.56 0.51 0.45 0.44 0.66 0.99 0.89 0.50 0.62 1.23 1.34 0.92 0.77 0.64 0.63 0.80 0.86 0.78 0.89 0.61 0.45 0.42 0.49 0.44 0.41 0.26 0.52 0.55 0.59 0.60 0.56 0.41 0.43 0.58 0.64 0.51 0.56 nan 0.67 0.61 0.73 0.78 0.75 0.71 0.82 0.78 0.77 0.93 0.79 0.64
0.89 0.62 0.70 1.33 0.84 0.84 1.07 0.96 0.69 0.37 0.13 0.55 0.76 0.59 0.51 0.46 0.84 0.85 0.62 0.65 0.87 0.90 0.81 0.67 0.76 1.01 0.87 0.67 0.69 0.89 0.80 0.76 0.76 0.61 0.42 0.52 0.55 0.76 0.83 0.77 0.95 0.87 0.78 0.79 nan nan 0.98 1.31 1.55 1.71 1.27 1.01 0.85 1.03
0.70 0.85 0.63 0.73 0.80 0.94 0.99 0.54 1.06 0.90 0.35 0.31 0.31 0.46 0.42 0.67 0.98 0.87 0.74 0.75 0.90 1.16 1.18 1.31 1.24 1.73 1.38 1.06 1.17 0.80 0.74 0.76 0.82 0.70 1.00 0.84 0.76 0.74 1.11 1.05 0.96 0.96 0.95 0.95 0.93 1.01 nan 1.23 nan 1.20 1.13 0.96 0.91 0.90
0.52 1.02 0.81 0.75 0.87 1.24 0.95 0.42 0.78 0.15 0.64 1.17 0.94 0.99 0.86 1.02 0.73 0.63 0.50 0.53 0.77 1.30 1.42 1.67 1.63 1.70 1.12 1.04 1.27 1.15 0.89 0.83 0.98 0.96 0.90 0.93 0.88 1.03 1.07 1.10 1.01 1.08 1.03 0.97 0.92 0.90 0.98 0.93 1.02 1.13 0.89 0.99 0.87 0.93
0.76 1.13 1.08 0.73 1.38 1.55 1.04 1.39 1.49 1.34 1.35 1.33 1.35 1.42 1.20 1.05 0.73 0.61 0.49 1.10 1.11 0.89 nan 1.04 0.76 0.62 0.66 0.68 0.69 0.78 nan 0.77 0.90 0.94 1.05 1.00 1.01 1.06 1.03 1.08 1.21 1.15 1.11 1.03 1.05 0.98 1.07 1.33 1.14 1.09 0.92 1.07 1.03 0.85
1.89 1.52 1.73 1.10 2.03 1.62 1.47 1.60 0.76 2.13 1.44 1.40 1.01 1.01 1.20 0.65 0.48 0.50 0.47 0.77 0.58 0.55 0.63 0.70 0.68 0.71 0.58 0.66 0.67 0.66 nan 0.83 1.06 nan nan nan nan nan 1.49 1.13 1.01 1.04 0.96 0.93 0.99 1.07 1.09 1.13 1.26 0.97 1.01 1.15 1.14 1.00
SL_Ratio
nan nan nan nan nan nan nan nan nan nan nan nan nan nan nan nan nan nan nan nan 3.0 3.4 3.1 nan nan 6.9 5.5 6.8 6.3 nan 6.7 4.5 4.6 6.0 7.1 6.7 7.4 7.5 7.2 7.7 8.1 8.0 8.1 8.7 8.7 8.6 9.0 9.4 8.7 13.1 11.6 9.7 10.2 10.1
nan nan nan nan nan nan nan nan nan nan nan nan nan nan nan nan nan nan nan nan nan 2.9 3.7 nan nan nan nan nan 6.2 5.3 6.9 6.1 5.4 5.5 5.6 6.3 7.2 6.7 7.4 9.2 6.5 8.4 7.7 9.5 9.1 10.7 9.2 7.6 9.3 8.0 7.8 8.4 8.8 11.1
nan nan nan nan nan nan nan nan nan nan nan nan nan nan nan nan nan nan nan nan nan 2.8 2.9 3.0 nan nan nan nan nan 5.9 3.3 5.2 6.0 5.3 6.7 5.9 7.2 6.3 8.5 8.2 7.1 6.3 5.5 6.9 6.9 11.8 9.1 8.5 7.1 6.5 6.8 7.0 7.0 7.3
nan nan nan nan nan nan nan nan nan nan nan nan nan nan nan nan nan nan nan nan 2.5 2.8 5.7 3.5 nan nan nan nan nan nan nan 5.0 5.0 5.5 6.3 5.8 7.0 8.0 8.1 8.9 7.7 11.3 7.9 11.0 5.8 9.7 10.9 8.5 6.6 6.8 6.8 6.6 6.7 6.7
nan nan nan nan nan nan nan nan nan nan nan nan nan nan nan nan nan nan 0.0 2.1 nan 3.6 5.4 3.6 2.8 2.5 nan nan nan nan nan 5.9 5.5 5.9 5.8 7.0 7.5 8.1 6.6 6.9 9.6 13.6 14.3 10.7 12.9 13.2 11.7 11.4 6.2 6.7 8.8 8.1 7.7 9.6
nan nan nan nan nan nan nan nan nan nan nan nan nan nan nan nan nan nan 2.6 nan nan nan 4.4 5.1 3.2 2.5 nan nan nan nan nan 5.4 5.7 6.6 6.4 7.1 9.3 9.2 7.2 8.5 15.4 14.9 14.1 13.7 14.9 14.7 10.2 6.5 5.2 5.9 8.4 8.1 8.5 9.2
nan nan nan nan nan nan nan nan nan nan nan nan nan nan nan nan nan 5.0 2.7 0.0 nan nan 3.5 4.7 5.3 3.9 2.8 2.8 2.7 2.9 2.9 3.7 5.5 5.9 5.7 6.8 9.4 7.5 7.0 10.4 14.9 15.6 15.5 14.5 13.2 9.0 7.8 6.4 9.9 7.3 8.2 8.1 7.9 9.7
nan nan nan nan nan nan nan nan nan nan nan nan nan nan nan nan nan nan nan nan nan 2.8 3.4 5.0 5.9 4.5 2.8 4.4 5.4 3.2 3.7 4.2 4.5 5.3 5.6 6.4 7.2 6.3 8.8 10.7 13.9 13.5 9.4 9.2 9.0 8.3 8.6 8.1 7.4 9.0 9.5 9.9 11.0 11.6
nan nan nan nan nan nan nan nan nan nan nan nan nan nan nan nan nan nan nan nan nan 3.6 4.4 4.9 5.5 4.4 4.7 5.0 5.2 5.3 4.0 6.4 4.7 6.1 7.4 6.9 8.9 9.0 12.0 13.5 13.2 11.7 11.6 12.0 10.2 9.5 9.4 10.2 10.7 10.3 10.0 10.2 10.8 11.3
nan nan nan nan nan nan nan nan nan nan nan nan nan 2.8 3.3 2.5 nan nan 4.6 3.7 3.1 3.2 4.3 6.0 5.9 6.1 5.3 5.0 6.0 6.0 5.8 7.1 6.6 8.4 7.3 7.9 11.3 10.7 11.8 10.6 10.5 10.6 10.7 10.5 9.8 10.9 10.6 10.7 11.3 10.9 11.2 10.9 11.6 11.8
nan nan nan nan nan nan nan nan nan nan nan 2.5 2.7 3.4 2.5 nan 3.6 3.9 4.4 4.4 4.9 5.1 6.1 6.2 6.5 7.1 5.8 6.5 7.6 6.1 6.6 6.9 7.2 8.3 9.2 9.1 10.8 12.8 11.3 10.9 10.3 10.1 10.1 10.4 10.4 10.8 10.7 11.3 11.4 11.9 11.8 11.6 11.6 11.8
nan nan nan nan nan nan nan nan nan nan 2.5 2.5 3.1 2.8 3.0 4.1 4.2 4.9 5.3 5.7 6.3 6.5 6.4 7.1 6.9 7.2 6.8 5.7 7.1 6.5 7.2 6.9 8.5 7.9 8.1 9.7 11.7 12.1 11.9 12.1 11.5 11.1 10.9 11.3 10.8 11.4 11.1 11.4 11.8 12.0 12.3 11.7 12.3 11.9
nan nan nan nan nan nan nan nan nan nan nan 2.5 4.1 3.8 4.6 5.1 5.5 6.0 7.2 6.0 6.1 6.3 6.2 6.5 6.2 6.6 6.7 6.0 6.4 6.9 7.4 7.9 7.7 7.1 10.0 12.0 12.7 12.4 12.7 12.1 12.3 11.7 11.6 11.8 12.2 11.8 12.1 12.4 11.9 12.6 12.8 12.8 12.4 12.2
nan nan nan nan nan nan nan nan nan nan 3.5 4.4 4.6 5.4 6.0 6.4 6.7 7.0 7.8 7.0 7.1 6.1 6.8 7.3 7.0 6.9 6.7 6.9 7.3 6.7 8.9 8.2 7.9 8.6 11.0 11.5 13.1 13.1 12.9 12.6 12.9 13.0 12.7 12.9 10.2 10.7 12.1 12.4 13.3 12.8 12.1 11.7 11.8 12.4
nan nan nan nan nan nan nan nan nan 2.4 3.3 4.5 4.3 6.0 6.5 7.5 6.5 6.8 5.5 5.8 6.3 6.4 6.9 6.7 6.6 7.3 6.3 6.6 7.7 7.2 8.0 8.2 10.0 10.6 10.7 10.5 11.5 11.9 12.0 12.2 12.7 12.7 12.3 11.6 11.6 10.4 9.8 10.7 12.1 12.6 11.8 11.7 12.0 12.3
nan nan nan nan nan nan nan nan 2.7 3.1 4.8 4.5 4.9 6.4 8.3 5.9 6.1 5.3 5.1 6.0 6.7 7.5 6.9 6.4 6.0 6.4 6.9 7.0 7.2 8.5 7.8 9.9 10.2 9.2 10.1 10.4 11.0 11.2 11.2 11.3 11.4 11.5 11.2 11.0 11.0 10.2 10.3 9.9 10.3 10.9 10.7 10.5 11.5 12.3
nan 2.5 nan nan nan nan nan 3.3 4.2 4.2 4.8 4.8 5.8 8.1 7.5 6.3 6.5 7.8 8.4 8.2 6.3 6.9 6.3 6.2 7.3 7.7 6.9 7.6 9.0 8.3 8.7 9.9 9.6 9.9 10.5 11.4 12.1 11.7 11.0 11.1 11.1 10.2 10.3 9.9 9.7 9.3 9.2 8.6 8.2 8.6 9.3 9.4 9.3 9.4
2.5 2.5 nan nan nan nan 5.9 5.5 4.8 4.7 5.7 6.0 7.8 7.7 9.4 9.3 9.0 8.9 8.3 7.7 7.1 6.4 6.1 5.3 5.8 6.9 8.4 8.9 9.7 9.4 9.1 8.0 9.7 11.3 11.3 11.2 11.4 11.0 11.0 10.9 10.2 10.4 9.9 9.1 9.2 8.6 8.4 8.5 8.6 8.9 9.1 8.9 8.7 8.6
2.8 2.6 nan nan 2.8 5.3 4.8 4.9 4.5 5.9 6.6 6.7 7.7 7.9 7.8 8.7 8.6 8.5 8.8 8.0 7.4 7.1 5.6 6.0 6.7 7.4 9.9 8.7 8.5 7.8 8.3 10.2 12.6 11.5 11.7 11.6 11.0 11.3 10.6 10.0 9.9 9.9 9.0 9.5 9.8 9.8 10.0 9.8 9.6 9.1 8.9 9.0 9.5 9.3
nan nan nan nan nan 5.0 5.1 5.1 3.9 5.5 7.0 7.8 6.4 6.9 7.1 7.0 7.5 7.5 7.5 7.4 6.9 5.2 5.9 6.7 9.9 12.3 12.1 10.6 10.5 10.8 10.4 11.2 12.1 11.7 11.5 11.8 11.7 11.6 11.0 10.6 10.4 10.5 9.7 9.5 8.9 nan 10.1 9.0 9.2 9.3 9.7 9.8 9.6 9.9
nan nan nan 6.2 5.2 5.1 4.7 5.7 6.3 5.9 7.0 7.7 7.5 7.1 7.9 5.5 6.0 5.7 5.6 6.0 5.7 6.2 6.8 10.6 11.8 11.4 11.7 12.1 12.6 12.0 11.6 11.8 12.6 13.6 13.3 11.3 12.6 10.4 10.4 9.5 8.5 12.8 12.8 12.4 12.4 11.4 10.3 11.8 10.5 10.8 9.3 9.3 9.7 9.0
4.5 nan 4.9 4.8 4.6 4.5 5.1 5.2 6.4 7.1 7.4 7.6 6.7 6.9 6.3 6.3 6.5 6.9 6.1 6.1 7.0 8.7 10.3 11.2 11.1 11.4 11.8 12.8 12.8 12.5 11.8 11.7 11.7 11.9 nan 12.8 12.1 10.4 10.7 9.7 8.1 6.7 6.5 6.4 10.1 13.4 15.9 14.9 13.7 11.0 7.3 8.1 5.2 7.4
nan 5.3 4.6 4.3 5.5 5.5 6.2 5.6 7.3 7.4 7.8 7.2 6.8 7.4 7.2 6.9 7.4 6.7 7.4 7.6 8.3 10.7 10.8 10.7 11.7 11.6 11.6 11.6 10.8 11.3 11.5 11.8 12.1 13.0 13.7 14.1 14.0 9.6 8.0 10.0 8.8 6.3 6.3 7.1 8.2 8.2 7.2 nan 14.8 15.0 15.1 11.7 6.2 5.9
nan 4.7 5.6 6.0 6.0 6.6 6.6 7.1 7.5 8.1 8.1 8.2 7.6 8.3 8.0 7.9 8.1 7.5 8.5 9.2 11.4 11.0 10.0 11.3 9.8 10.3 10.0 10.4 10.4 10.9 10.7 10.3 10.4 10.5 13.5 9.7 8.4 15.2 16.1 14.2 16.4 11.9 9.7 10.7 8.1 7.7 7.8 17.5 nan 9.0 10.3 7.5 7.1 7.1
5.0 5.3 5.8 5.9 6.8 7.5 8.5 9.2 8.3 9.2 9.2 9.1 8.9 8.8 8.3 9.2 8.2 7.9 9.4 9.3 9.3 10.2 9.8 9.5 9.7 10.2 11.3 11.9 11.4 11.4 13.4 10.6 11.1 9.9 9.2 9.4 9.9 8.3 6.9 8.1 13.6 13.2 8.9 5.9 6.7 7.8 7.0 7.4 7.7 7.5 7.8 8.1 8.6 9.4
5.5 6.4 6.3 7.7 7.7 8.8 9.5 9.6 9.7 9.5 9.7 9.6 9.6 9.6 8.9 8.6 8.3 8.1 10.4 8.9 10.7 10.2 10.3 10.6 11.9 11.4 12.2 12.0 12.9 11.2 11.1 9.7 9.3 8.0 8.4 8.1 8.9 6.9 6.4 7.9 8.2 7.7 8.4 8.8 7.9 8.3 7.7 8.1 9.2 9.8 9.0 9.0 nan 8.9
6.2 6.8 7.9 7.8 9.7 10.2 10.2 10.6 10.5 9.5 9.3 9.6 9.6 10.0 9.1 8.5 9.3 11.4 11.8 10.9 10.2 8.4 8.2 8.4 9.5 10.2 10.9 10.7 10.1 8.9 9.0 7.5 8.0 7.7 8.0 6.9 7.2 8.9 7.5 7.6 8.5 8.0 9.4 9.6 8.1 9.3 10.0 9.7 9.2 8.8 8.6 8.0 8.5 9.1
7.6 9.0 10.1 8.3 10.2 10.3 10.8 11.0 10.3 10.1 10.2 11.2 10.6 9.8 9.3 10.0 10.6 10.0 9.8 9.4 8.4 6.9 6.9 7.0 7.3 7.4 7.7 8.3 8.6 9.5 7.1 6.9 7.4 8.1 8.3 8.4 7.9 6.7 7.4 7.0 6.8 nan 8.4 6.9 8.7 9.8 9.7 9.7 9.5 9.4 9.5 9.2 9.1 8.8
8.7 8.8 9.1 9.2 9.9 9.6 9.5 9.4 9.9 11.3 14.9 10.7 9.5 10.0 10.8 11.1 9.1 9.1 9.5 7.7 7.0 7.8 8.2 8.2 7.2 7.0 7.7 8.4 7.9 7.5 7.7 8.4 9.8 10.7 11.3 9.9 8.9 7.1 7.1 7.8 7.7 8.1 8.0 8.7 nan nan 9.8 10.3 11.2 11.1 9.5 9.2 9.3 8.7
9.2 8.7 9.4 9.6 9.3 9.7 9.5 11.4 9.3 9.6 11.5 10.2 9.7 10.1 10.9 9.9 9.3 8.3 8.4 7.9 8.7 8.5 6.7 6.5 6.8 7.5 7.6 8.1 8.0 8.9 8.5 9.0 9.1 10.3 9.8 9.3 8.4 7.2 8.7 8.9 9.0 8.7 8.8 9.0 8.9 8.3 nan 8.6 nan 8.9 9.4 9.6 9.9 9.8
9.2 8.3 9.1 9.2 9.2 8.8 9.6 11.4 10.1 13.0 10.2 9.0 9.1 8.7 9.1 8.8 9.6 8.7 8.5 7.3 7.1 7.1 7.2 7.5 7.2 7.1 8.9 9.0 8.6 9.0 9.4 8.5 10.1 10.0 10.1 9.8 9.0 9.6 9.3 9.3 9.0 9.1 9.1 9.4 9.6 9.5 9.5 10.1 9.9 9.7 10.3 10.2 10.3 10.8
8.7 8.6 8.5 9.2 8.2 8.3 9.4 8.8 8.7 8.8 9.0 8.8 8.9 8.9 9.3 9.5 10.6 9.5 8.6 9.0 8.7 9.4 nan 7.9 9.3 8.6 7.6 7.7 8.1 8.3 nan 8.7 9.1 9.6 10.8 11.0 11.2 11.6 10.7 9.8 9.0 9.2 9.6 9.9 9.9 10.2 10.2 9.6 10.0 10.0 10.5 10.2 10.4 11.1
8.0 8.3 8.2 8.9 7.7 8.3 8.5 8.0 9.5 7.5 8.6 9.0 9.5 9.7 9.5 10.5 11.8 10.1 11.7 8.8 6.3 7.3 7.4 7.2 7.1 6.9 9.1 10.4 8.7 8.1 nan 8.4 10.0 nan nan nan nan nan 10.5 10.4 10.0 10.2 10.5 10.3 10.0 10.1 10.4 10.3 9.9 10.9 10.8 10.4 10.2 10.6